Alliance, NE

7:51 PM MST on February 19, 2018 (GMT -0700)
Alliance Municipal

Weather History for KAIA - March, 2012

Change the Weather History Date:

Sunday, March 11, 2012

  Actual Average Record
Temperature  
Mean Temperature 43 °F 35 °F  
Max Temperature 58 °F 50 °F 78 °F (1972)
Min Temperature 27 °F 20 °F -23 °F (1948)
Degree Days  
Heating Degree Days 22 30  
Month to date heating degree days 302 350  
Since 1 July heating degree days 5480 5754  
Cooling Degree Days 0 0  
Month to date cooling degree days 0 0  
Year to date cooling degree days 0 0  
Moisture  
Dew Point 36 °F    
Average Humidity 74    
Maximum Humidity 100    
Minimum Humidity 47    
Precipitation  
Precipitation 0.00 in 0.02 in 0.47 in (1974)
Month to date precipitation 0.00 0.13  
Year to date precipitation 0.86 0.69  
Sea Level Pressure  
Sea Level Pressure 29.67 in    
Wind  
Wind Speed 11 mph (South)    
Max Wind Speed 23 mph    
Max Gust Speed 28 mph    
Visibility 7 miles    
Events Fog    
T = Trace of Precipitation, MM = Missing Value Source: NWS Daily Summary

Daily Weather History Graph

Daily Weather History Graph

Search for Another Location

Airport or City:

Trip Planner

Search our weather history database for the weather conditions in past years. The results will help you decide how hot, cold, wet, or windy it might be!

Date:

Astronomy

Mar. 11, 2012 Rise Set
Actual Time 7:08 AM MDT 6:53 PM MDT
Civil Twilight 6:41 AM MDT 7:21 PM MDT
Nautical Twilight 6:08 AM MDT 7:54 PM MDT
Astronomical Twilight 5:36 AM MDT 8:26 PM MDT
Moon 11:26 PM MDT (3/11) 8:41 AM MDT (3/11)
Length of Visible Light 12h 40m
Length of Day
11h 44m
Waning Gibbous, 85% of the Moon is Illuminated
Mar 11
Waning Gibbous
Mar 14
Last Quarter
Mar 22
New
Mar 30
First Quarter
Apr 6
Full

Hourly Weather History & Observations

Time (MDT) Temp. Windchill Dew Point Humidity Pressure Visibility Wind Dir Wind Speed Gust Speed Precip Events Conditions
12:53 AM 41.0 °F 37.1 °F 37.0 °F 86% 29.77 in 10.0 mi SSW 5.8 mph - N/A   Clear
1:53 AM 37.9 °F - 35.1 °F 89% 29.76 in 10.0 mi Calm Calm - N/A   Clear
3:53 AM 37.0 °F 31.0 °F 35.1 °F 93% 29.73 in 10.0 mi SSE 8.1 mph - N/A   Clear
4:53 AM 35.1 °F 30.1 °F 33.1 °F 92% 29.71 in 10.0 mi South 5.8 mph - N/A   Clear
5:53 AM 33.8 °F 25.3 °F 33.8 °F 100% 29.75 in 10.0 mi SSE 11.5 mph - N/A   Clear
6:15 AM 37.4 °F 28.2 °F 35.6 °F 93% 29.75 in 2.5 mi SSE 16.1 mph - N/A   Scattered Clouds
6:18 AM 37.4 °F 28.2 °F 35.6 °F 93% 29.75 in 1.2 mi SSE 16.1 mph - N/A   Mostly Cloudy
6:20 AM 37.4 °F 27.8 °F 37.4 °F 100% 29.75 in 0.8 mi SSE 17.3 mph - N/A   Mist
6:53 AM 37.9 °F 28.5 °F 37.0 °F 97% 29.71 in 0.2 mi SSE 17.3 mph - N/A Fog Fog
7:53 AM 39.9 °F 33.4 °F 39.9 °F 100% 29.72 in 0.8 mi SSE 10.4 mph - N/A   Overcast
8:18 AM 41.0 °F 34.7 °F 41.0 °F 100% 29.73 in 1.2 mi South 10.4 mph - N/A   Overcast
8:26 AM 41.0 °F 34.7 °F 41.0 °F 100% 29.72 in 0.8 mi South 10.4 mph - N/A   Overcast
8:53 AM 39.9 °F 30.5 °F 39.0 °F 97% 29.73 in 0.2 mi SSE 19.6 mph 25.3 mph N/A Fog Fog
9:28 AM 39.2 °F 29.6 °F 39.2 °F 100% 29.74 in 1.2 mi South 19.6 mph 27.6 mph N/A   Overcast
9:30 AM 39.2 °F 30.2 °F 39.2 °F 100% 29.74 in 2.0 mi South 17.3 mph 26.5 mph N/A   Overcast
9:37 AM 41.0 °F 32.2 °F 39.2 °F 93% 29.74 in 7.0 mi South 18.4 mph 23.0 mph N/A   Overcast
9:53 AM 41.0 °F 33.1 °F 39.9 °F 96% 29.74 in 8.0 mi South 15.0 mph 21.9 mph N/A   Overcast
10:38 AM 42.8 °F 35.8 °F 39.2 °F 87% 29.73 in 10.0 mi South 13.8 mph - N/A   Overcast
10:53 AM 44.1 °F 36.8 °F 39.0 °F 82% 29.70 in 10.0 mi South 16.1 mph - N/A   Overcast
11:48 AM 44.6 °F 37.4 °F 39.2 °F 81% 29.72 in 10.0 mi South 16.1 mph 24.2 mph N/A   Overcast
11:53 AM 46.0 °F 39.9 °F 39.0 °F 76% 29.69 in 10.0 mi South 13.8 mph - N/A   Overcast
12:33 PM 50.0 °F - 39.2 °F 66% 29.69 in 10.0 mi SSE 17.3 mph - N/A   Mostly Cloudy
12:53 PM 52.0 °F - 39.0 °F 61% 29.65 in 10.0 mi South 12.7 mph - N/A   Scattered Clouds
1:53 PM 55.9 °F - 39.0 °F 53% 29.62 in 10.0 mi SSE 13.8 mph 21.9 mph N/A   Clear
2:53 PM 55.9 °F - 37.9 °F 51% 29.57 in 10.0 mi South 17.3 mph 24.2 mph N/A   Clear
3:53 PM 57.9 °F - 37.9 °F 47% 29.55 in 10.0 mi South 10.4 mph 20.7 mph N/A   Clear
4:53 PM 55.9 °F - 37.0 °F 49% 29.55 in 10.0 mi SE 16.1 mph - N/A   Clear
5:53 PM 51.1 °F - 36.0 °F 56% 29.56 in 10.0 mi SSE 15.0 mph 23.0 mph N/A   Clear
6:53 PM 46.0 °F 39.9 °F 35.1 °F 66% 29.58 in 10.0 mi SSE 13.8 mph - N/A   Clear
7:53 PM 43.0 °F 38.2 °F 34.0 °F 71% 29.57 in 10.0 mi South 8.1 mph - N/A   Clear
8:53 PM 39.9 °F 35.1 °F 33.1 °F 77% 29.58 in 10.0 mi South 6.9 mph - N/A   Clear
9:53 PM 37.0 °F 31.0 °F 32.0 °F 82% 29.58 in 10.0 mi South 8.1 mph - N/A   Clear
10:53 PM 30.9 °F 23.5 °F 28.0 °F 89% 29.57 in 10.0 mi SW 8.1 mph - N/A   Clear
11:53 PM 28.0 °F 20.8 °F 26.1 °F 92% 29.58 in 10.0 mi WSW 6.9 mph - N/A   Clear
12:53 AM 28.0 °F 19.3 °F 24.1 °F 85% 29.57 in 10.0 mi West 9.2 mph - N/A   Clear